STARLINK-32153 (60330 NORAD) Tracking and Keplerian Element Data

This shows tracking and keplerian element data for the satellite.

Feedback or suggestion? Click here.




ElementValue
Catalog60330
NameSTARLINK-32153
Epoch Orbit1214
Epoch Day286.46835606
Epoch Year2024
RAAN299.8394
Inclination53.1605
Eccentricity0.000134
Argument of Perigee92.0527
Mean Anonmoly268.0628
Mean Motion15.30196279
Decay Rate-3.838E-05
L11 60330U 24136B 24286.46835606 -.00003838 00000+0 -11754-3 0 9992
L22 60330 53.1605 299.8394 0001340 92.0527 268.0628 15.30196279 12144



Live tracking and technical data element details for STARLINK-32153 (NORAD 60330). STARLINK-32153 can be tracked NOW for your location showing map with azimuth and elevation plus other details from your city location.







IsCatalogInMostPopularTable: catalog: 60330, numindb: 8
Update: records affected: 1



GetName: 60330 STARLINK-32153

Hit Count: updated at: Wed, 04 Dec 2024 17:33:58 GMT